Location: Aetna Mine
(37.6183°N, 107.6045°W)
Time: 23:51:24
(UTC+00:00)

USA 32 - Pass Details

Date: 18 September 2020
Orbit: 778 x 782 km, 85.0° (Epoch: 27 September)

Event Time Altitude Azimuth Distance (km) Brightness Sun altitude
Rises 12:15:55 0° 347° (NNW) 3,272 7.2 -8.6°
Reaches altitude 10° 12:18:23 10° 341° (NNW) 2,340 6.4 -8.1°
Maximum altitude 12:23:17 42° 272° (W) 1,111 4.4 -7.2°
Drops below altitude 10° 12:28:10 10° 203° (SSW) 2,328 6.2 -6.2°
Sets 12:30:37 0° 196° (SSW) 3,252 7.0 -5.7°
